Regional Weather Roundup
Issued by NWS

Home | Current Version | Previous Version | Graphics & Text | Print | Product List | Glossary On
Versions: 1 2 3 4 5 6 7 8 9 10 11 12 13 14 15 16 17 18 19 20 21 22 23 24 25 26 27 28 29 30 31 32 33 34 35 36 37 38 39 40 41 42 43 44 45 46 47 48 49 50
000
ASUS43 KTOP 071608
RWRKS

WEATHER ROUNDUP FOR KANSAS
NATIONAL WEATHER SERVICE GOODLAND KS
1000 AM CST WED DEC 07 2016

NOTE:  "FAIR" INDICATES FEW OR NO CLOUDS BELOW 12,000 FEET WITH NO
SIGNIFICANT WEATHER AND/OR OBSTRUCTIONS TO VISIBILITY.

KSZ001>006-013>018-027>032-041>047-071700-
NORTHWEST KANSAS

CITY           SKY/WX    TMP DP  RH WIND       PRES   REMARKS
GOODLAND       LGT SNOW  13   9  84 NE14      30.23R FOG     WCI  -2
HAYS           FLURRIES  21  14  74 N16       30.32R WCI   7
HILL CITY      LGT SNOW  19  13  77 NE13      30.34R WCI   6
RUSSELL        CLOUDY    22  13  68 N15       30.31R WCI   9
$$

KSZ061>065-074>080-084>089-071700-
SOUTHWEST KANSAS

CITY           SKY/WX    TMP DP  RH WIND       PRES   REMARKS
DODGE CITY     LGT SNOW  24  21  88 NE18      30.20R FOG     WCI  10
ELKHART          N/A     22  12  65 CALM        N/A
GARDEN CITY    LGT SNOW  22  18  85 NE20      30.17R FOG     WCI   7
GREAT BEND     CLOUDY    24  14  65 N21       30.28R WCI   9
LIBERAL        CLOUDY    28  16  59 E9        30.13R
PRATT          CLOUDY    29  17  59 NE12      30.23R WCI  19
$$

KSZ066>073-081>083-090>101-071700-
SOUTHEAST KANSAS

CITY           SKY/WX    TMP DP  RH WIND       PRES   REMARKS
CHANUTE        CLOUDY    35  18  49 NE3       30.26R
COFFEYVILLE    CLOUDY    35  19  52 E7        30.27R
HUTCHINSON     CLOUDY    29  16  58 NE15      30.27R WCI  18
MEDICINE LODGE   N/A     34  13  41 E10       30.22R WCI  26
NEWTON         CLOUDY    30  18  60 NE13G20   30.27R WCI  20
PARSONS        CLOUDY    36  17  46 E3        30.27R
WICHITA INTL   CLOUDY    35  16  45 NE12      30.23R WCI  27
WICHITA JABRA  CLOUDY    33  18  53 NE14      30.23R WCI  23
WICHITA MCCONL CLOUDY    34  17  49 E9        30.23R
WINFIELD       CLOUDY    36  14  40 E12       30.22S WCI  28
$$

KSZ007>012-019>026-033>040-048>060-102>105-071700-
NORTHEAST KANSAS

CITY           SKY/WX    TMP DP  RH WIND       PRES   REMARKS
CONCORDIA      LGT SNOW  19  17  92 N10       30.35R FOG     WCI   7
EMPORIA        CLOUDY    30  15  53 N13       30.29R WCI  20
LAWRENCE       CLOUDY    29  16  58 NW10      30.32R WCI  20
MANHATTAN      CLOUDY    28  14  55 N9        30.34R
MARYSVILLE     CLOUDY    23  12  63 N12       30.34R WCI  12
OLATHE IND     CLOUDY    29  13  51 N9        30.30R
OLATHE EXE     CLOUDY    29  12  49 NW9       30.29R
SALINA         LGT SNOW  27  16  63 N12       30.34R WCI  17
TOPEKA BILLARD CLOUDY    28  14  55 N9        30.32R
TOPEKA FORBES  CLOUDY    30  14  51 N9        30.30R
$$




USA.gov is the U.S. government's official web portal to all federal, state and local government web resources and services.